WetterOnline ( http://www.wetteronline.de )

Wetter aktuell Karlsruhe

Aktuelles Wetter: Rheinstetten (116m)

6-stündlich | Neueste Meldungen
Ortszeit Temperatur Wetter
Mi, 20.02. 7:00 -1.9° C wolkig
Mi, 20.02. 1:00 -0.0° C wolkig
Di, 19.02. 19:00 6.3° C leicht bewölkt
Di, 19.02. 13:00 8.0° C Sprühregen
Di, 19.02. 7:00 3.3° C wolkig
Di, 19.02. 1:00 2.2° C fast wolkenlos
Mo, 18.02. 19:00 6.6° C wolkig
Mo, 18.02. 13:00 12.4° C wolkenlos
Ortszeit Temperatur Wetter
Mi, 20.02. 10:30 5.6° C bedeckt
Mi, 20.02. 10:20 5.6° C bedeckt
Mi, 20.02. 10:10 5.0° C bedeckt
Mi, 20.02. 10:00 3.9° C wolkig
Mi, 20.02. 9:50 3.9° C bedeckt
Mi, 20.02. 9:40 2.8° C bedeckt
Mi, 20.02. 9:30 2.6° C bewölkt
Mi, 20.02. 9:00 1.3° C bedeckt
Mi, 20.02. 8:30 -1.1° C bewölkt
Mi, 20.02. 8:00 -1.9° C bewölkt
Mi, 20.02. 7:30 -2.4° C leicht bewölkt
Ortszeit Relative Feuchte Sichtweite
Mi, 20.02. 7:00 97% 10 km
Mi, 20.02. 1:00 99% 8 km
Di, 19.02. 19:00 85% 23 km
Di, 19.02. 13:00 74% 26 km
Di, 19.02. 7:00 79% 30 km
Di, 19.02. 1:00 88% 30 km
Mo, 18.02. 19:00 67% 27 km
Mo, 18.02. 13:00 44% 55 km
Ortszeit Relative Feuchte Sichtweite
Mi, 20.02. 10:30 83% 21 km
Mi, 20.02. 10:20 83% -
Mi, 20.02. 10:10 86% -
Mi, 20.02. 10:00 89% 18 km
Mi, 20.02. 9:50 89% -
Mi, 20.02. 9:40 90% -
Mi, 20.02. 9:30 89% 17 km
Mi, 20.02. 9:00 88% 7 km
Mi, 20.02. 8:30 94% 11 km
Mi, 20.02. 8:00 96% 10 km
Mi, 20.02. 7:30 96% 9 km
Ortszeit Niederschlagsmenge Niederschlagsart
Mi, 20.02. 7:00 0.0 l/m2 in 12 Std. -
Mi, 20.02. 1:00 0.0 l/m2 in 6 Std. -
Di, 19.02. 19:00 0.1 l/m2 in 12 Std. Regen
Di, 19.02. 13:00 0.1 l/m2 in 6 Std. Regen
Di, 19.02. 7:00 0.0 l/m2 in 12 Std. -
Di, 19.02. 1:00 0.0 l/m2 in 6 Std. -
Mo, 18.02. 19:00 0.0 l/m2 in 12 Std. -
Mo, 18.02. 13:00 0.1 l/m2 in 6 Std. -
Ortszeit Niederschlagsmenge Niederschlagsart
Mi, 20.02. 10:30 0.0 l/m2 in 1 Std. -
Mi, 20.02. 10:20 keine Meldung -
Mi, 20.02. 10:10 keine Meldung -
Mi, 20.02. 10:00 0.0 l/m2 in 1 Std. -
Mi, 20.02. 9:50 keine Meldung -
Mi, 20.02. 9:40 keine Meldung -
Mi, 20.02. 9:30 0.0 l/m2 in 1 Std. -
Mi, 20.02. 9:00 0.0 l/m2 in 1 Std. -
Mi, 20.02. 8:30 0.0 l/m2 in 1 Std. -
Mi, 20.02. 8:00 0.0 l/m2 in 1 Std. -
Mi, 20.02. 7:30 0.0 l/m2 in 1 Std. -
Ortszeit Stärke Spitze Richtung
km/h Bft. km/h Grad Sektor
Mi, 20.02. 7:00 2 1 7 200° S
Mi, 20.02. 1:00 4 1 14 200° S
Di, 19.02. 19:00 7 2 25 200° S
Di, 19.02. 13:00 11 2 18 240° SW
Di, 19.02. 7:00 9 2 20 240° SW
Di, 19.02. 1:00 7 2 13 250° W
Mo, 18.02. 19:00 11 2 11 130° SO
Mo, 18.02. 13:00 6 1 9 290° W
Ortszeit Stärke Spitze Richtung
km/h Bft. km/h Grad Sektor
Mi, 20.02. 10:30 4 1 7 210° SW
Mi, 20.02. 10:20 4 1 - 210° SW
Mi, 20.02. 10:10 6 1 - 210° SW
Mi, 20.02. 10:00 7 2 7 190° S
Mi, 20.02. 9:50 7 2 - 190° S
Mi, 20.02. 9:40 7 2 - 200° S
Mi, 20.02. 9:30 4 1 4 250° W
Mi, 20.02. 9:00 0 0 4 - -
Mi, 20.02. 8:30 0 0 4 - -
Mi, 20.02. 8:00 0 0 4 - -
Mi, 20.02. 7:30 2 1 4 80° O
Ortszeit Untergrenze Bedeckung Gattung
total tief tief mittel hoch
Mi, 20.02. 7:00 8700 m 7/8 0/8 - - -
Mi, 20.02. 1:00 10500 m 7/8 0/8 - - -
Di, 19.02. 19:00 3000 m 2/8 2/8 - - -
Di, 19.02. 13:00 900 m 7/8 7/8 - - -
Di, 19.02. 7:00 1500 m 7/8 1/8 - - -
Di, 19.02. 1:00 9000 m 1/8 0/8 - - -
Mo, 18.02. 19:00 8100 m 8/8 0/8 - - -
Mo, 18.02. 13:00 - 0/8 0/8 - - -
Ortszeit Bedeckungsgrad in Achtel und Wolkenuntergrenze
Mi, 20.02. 10:30 8(4200m) 8(5100m)
Mi, 20.02. 10:20 8(4200m) 8(5100m)
Mi, 20.02. 10:10 8(4200m) 8(5100m)
Mi, 20.02. 10:00 8(3900m) 8(4500m) 8(5400m)
Mi, 20.02. 9:50 8(3900m)
Mi, 20.02. 9:40 8(3900m) 8(10500m)
Mi, 20.02. 9:30 6(3900m) 7(4800m) 8(10500m)
Mi, 20.02. 9:00 1(4200m) 4(5100m) 8(5700m)
Mi, 20.02. 8:30 3(4200m) 7(6000m) 8(10500m)
Mi, 20.02. 8:00 6(6300m) 7(10500m)
Mi, 20.02. 7:30 1(6300m) 5(10500m)
Ortszeit Luftdruck NN (hPa) Tendenz (hPa in 3 Std.)
Mi, 20.02. 7:00 1025 + 0,5
Mi, 20.02. 1:00 1024 + 0,2
Di, 19.02. 19:00 1023 + 0,5
Di, 19.02. 13:00 1023 + 1,2
Di, 19.02. 7:00 1020 + 0,2
Di, 19.02. 1:00 1020 + 0,4
Mo, 18.02. 19:00 1019 - 0,6
Mo, 18.02. 13:00 1021 - 1,7
Ortszeit Luftdruck NN (hPa) Tendenz (hPa in 3 Std.)
Mi, 20.02. 10:30 1026 + 1,3
Mi, 20.02. 10:20 1026 keine Meldung
Mi, 20.02. 10:10 1026 keine Meldung
Mi, 20.02. 10:00 1026 + 1,1
Mi, 20.02. 9:50 1026 keine Meldung
Mi, 20.02. 9:40 1026 keine Meldung
Mi, 20.02. 9:30 1026 + 1,3
Mi, 20.02. 9:00 1026 + 1,0
Mi, 20.02. 8:30 1026 + 1,0
Mi, 20.02. 8:00 1025 + 0,8
Mi, 20.02. 7:30 1025 + 0,7
Ortszeit Schneehöhe (cm)
Mi, 20.02. 7:00 0
Mi, 20.02. 1:00 0
Di, 19.02. 19:00 0
Di, 19.02. 13:00 0
Di, 19.02. 7:00 0
Di, 19.02. 1:00 0
Mo, 18.02. 19:00 0
Mo, 18.02. 13:00 0
Ortszeit Schneehöhe (cm)
Mi, 20.02. 10:30 0
Mi, 20.02. 10:20 0
Mi, 20.02. 10:10 0
Mi, 20.02. 10:00 0
Mi, 20.02. 9:50 0
Mi, 20.02. 9:40 0
Mi, 20.02. 9:30 0
Mi, 20.02. 9:00 0
Mi, 20.02. 8:30 0
Mi, 20.02. 8:00 0
Mi, 20.02. 7:30 0
Link zu dieser Seite / Seite empfehlen

Das Wetter in ...